STARLINK-32688, 62193

Orbit data source: Space-Track

STARLINK-32688, 62193 is a payload satellite owned by SpaceX/Seattle (US) in LEO that was launched on Wed, 04 Dec 2024 UTC via an FALCON 9 launch vehicle from the Air Force Eastern Test Range (AFETR). Payload-class satellites include a variety of spacecraft equipped with specific instruments for various scientific and technological missions. These include communications satellites like Starlink; space stations such as the ISS; scientific satellites like the Hubble; Earth observation satellites from companies like Planet Labs, Umbra, and HawkEye 360; GPS; miniature CubeSats for education and research; and military/defense satellites.

Loading next visibility...
Identifier
62193, 2024-229B
Orbit
LEO
Last TLE update
14 hours ago
Origin
Manufacturer
SpaceX/Seattle
Mission
Operational Commercial Communications
Bus & Motor
STARLINK V2M, Unknown motor
Mass
730 kg wet, ~700 kg dry
Launch date (UTC)
2024-12-04 (7 months ago)
Launch vehicle
FALCON 9
Launch site
Air Force Eastern Test Range (AFETR)
Object type
Payload
Rocket body
Debris
Shape & HBR
Box + 2 Pan, 29 m
Radar Cross Section
33.884 m², Large (>1 m²)

Expand to show TLE details & history

TLE from 14 hours ago
0 STARLINK-32688
1 62193U 24229B   25189.75238139  .00009991  00000-0  37210-3 0  9997
2 62193  42.9967 208.4039 0001194 276.1766  83.8950 15.27578031 33251
Epoch: 2025-07-08T18:03Z
TLE epoch observation values (Epoch: 2025-07-08T18:03:25.752Z)
Latitude
0.00003°
Longitude
10.60378°
Altitude
482.743 km
Speed
7.626 km/s
True Right ascension
13h 53m 36s
True Declination
0° 00' 00"
Sunlit
Object was in daylight at epoch
Visualization orbit readout
Latitude
10.15884°
Longitude
18.28119°
Altitude
482.116 km
Speed
7.627 km/s
Apparent Right ascension
12h 00m 30s
Apparent Declination
-18° 58' 17"
Sunlit
Object is in daylight
Visualization observer readout
Local Sidereal Time
20:24:21
Azimuth
277.958° WNW
Elevation
-39.386°
Doppler factor
1
Orbital elements
Apogee altitude
485.82 km
Perigee altitude
484.181 km
Semi-major axis
6,863.138 km
Eccentricity
0.00012
Inclination
42.9967°
RAAN
208.4039°
Arg. of periapsis
276.1766°
True anomaly
Unknown
Mean anomaly
83.895°
Eccentric anomaly
Unknown
Mean motion
3.81732 °/min
Orbital period
94.31 mins
BSTAR
0.0003721
Loading maneuver chart data...
Loading SW <> Apogee altitude chart data...
Loading historical data...
Loading historical data...
Loading historical data...
Loading historical data...
Loading historical data...
Loading historical data...
Loading historical data...

STARLINK-32688 Visibility forecast

Observer location: undefined°, undefined°

Span
Click to sort rows by Start time (UTC) header in descending order
Start Az.
Max El. time (UTC)
Max El. Az.
Max El.
End time (UTC)
End Az.
6 mins2025-07-09 08:34:43.700Z291.06° WNW2025-07-09 08:37:43.700Z12.436° NNE42.213°2025-07-09 08:40:43.700Z93.017° ESE
5 mins2025-07-09 10:14:43.700Z264.637° W2025-07-09 10:16:43.700Z202.585° SW32.643°2025-07-09 10:19:43.700Z140.651° SSE
5 mins2025-07-10 04:49:43.700Z230.87° WSW2025-07-10 04:51:43.700Z155.824° SSE41.828°2025-07-10 04:54:43.700Z77.039° E
5 mins2025-07-10 06:28:43.700Z284.057° WNW2025-07-10 06:30:43.700Z352.19° N39.25°2025-07-10 06:33:43.700Z69.899° E
5 mins2025-07-10 08:07:43.700Z294.557° NW2025-07-10 08:09:43.700Z347.824° N41.508°2025-07-10 08:12:43.700Z91.503° ESE
|